Regional Weather Roundup
Issued by NWS Little Rock, AR

Home | Current Version | Previous Version | Graphics & Text | Print | Product List | Glossary On
Versions: 1 2 3 4 5 6 7 8 9 10 11 12 13 14 15 16 17 18 19 20 21 22 23 24 25 26 27
000
ASUS44 KLZK 231905
RWRLZK

WEATHER ROUNDUP FOR ARKANSAS
NATIONAL WEATHER SERVICE LITTLE ROCK AR
200 PM CDT WED APR 23 2014

NOTE: "FAIR" INDICATES FEW OR NO CLOUDS BELOW 12,000 FEET WITH NO
SIGNIFICANT WEATHER AND/OR OBSTRUCTIONS TO VISIBILITY.

ARZ001-003-010-029-232000-
NORTHWEST ARKANSAS

CITY           SKY/WX    TMP DP  RH WIND       PRES   REMARKS
FAYETTEVILLE   SUNNY     76  50  40 S10       29.92F
FORT SMITH     SUNNY     81  55  40 SE8G17    29.89F
HARRISON       SUNNY     76  41  28 E13G20    29.94F
BENTONVILLE    SUNNY     77  48  36 S12       29.93F
ROGERS         SUNNY     77  46  33 SE14G22   29.92F
SILOAM SPGS    SUNNY     77  50  38 S13G20    29.92F
HIGHFILL       SUNNY     78  48  34 SW13G21   29.91F
SPRINGDALE     MOSUNNY   75  48  38 S12G23    29.93F
$$

ARZ004-005-016-232000-
NORTH CENTRAL ARKANSAS

CITY           SKY/WX    TMP DP  RH WIND       PRES   REMARKS
BATESVILLE     SUNNY     72  45  37 E8        30.00F
FLIPPIN        SUNNY     73  41  31 E8        29.96F
MTN HOME       SUNNY     75  38  26 E9        29.96F
$$

ARZ040-041-232000-
WEST CENTRAL ARKANSAS

CITY           SKY/WX    TMP DP  RH WIND       PRES   REMARKS
MENA           MOSUNNY   81  55  41 SE9       29.93F
MOUNT IDA      SUNNY     76  54  46 VRB7      29.92F
$$

ARZ009-017-025-026-028-232000-
NORTHEAST ARKANSAS

CITY           SKY/WX    TMP DP  RH WIND       PRES   REMARKS
CORNING          N/A     72  37  28 E9        30.02F
JONESBORO      SUNNY     72  38  29 VRB7      30.01F
NEWPORT        SUNNY     71  41  33 VRB3      30.02F
WALNUT RIDGE   SUNNY     72  39  30 E7        30.02F
BLYTHEVILLE    SUNNY     71  37  28 VRB6      30.01F
$$

ARZ022-023-033-042-044-232000-
CENTRAL ARKANSAS

CITY           SKY/WX    TMP DP  RH WIND       PRES   REMARKS
LITTLE ROCK    MOSUNNY   75  45  34 SE7G17    29.98F
N LITTLE ROCK  MOSUNNY   74  49  40 E10G16    29.98F
JACKSONVILLE   SUNNY     75  46  36 SE8       29.99F
SEARCY         SUNNY     74  45  35 VRB6      30.01F
HOT SPRINGS    SUNNY     78  52  40 SE7       29.96F
RUSSELLVILLE   SUNNY     77  49  37 VRB6      29.95F
CLINTON        FAIR      75  48  38 E9        29.98F
$$

ARZ036-232000-
EAST ARKANSAS

CITY           SKY/WX    TMP DP  RH WIND       PRES   REMARKS
WEST MEMPHIS   SUNNY     74  38  27 VRB5      29.99F
$$

ARZ050-053-066-070-073-232000-
SOUTHWEST ARKANSAS

CITY           SKY/WX    TMP DP  RH WIND       PRES   REMARKS
ARKADELPHIA    FAIR      80  55  42 VRB5      29.95F
CAMDEN         SUNNY     81  50  34 MISG      29.95F
TEXARKANA      PTSUNNY   80  58  46 S10       29.92F
EL DORADO      MOSUNNY   80  54  40 SE8       29.95F
DE QUEEN       PTSUNNY   81  60  48 S9        29.89F
$$

ARZ056-057-069-232000-
SOUTHEAST ARKANSAS

CITY           SKY/WX    TMP DP  RH WIND       PRES   REMARKS
PINE BLUFF     SUNNY     76  48  37 E5        29.98F
STUTTGART      SUNNY     75  45  33 CALM      30.00F
MONTICELLO     SUNNY     77  47  34 E6        29.97F

$$





USA.gov is the U.S. government's official web portal to all federal, state and local government web resources and services.